Volver al catálogo

IRIDIUM 33 DEB

ActivoPO
NORAD 38477·DEBRIS·🇺🇸 United States

Lanzado Sep 14, 1997 desde Baikonur Cosmodrome

Loading…

Próximos Pases (próximas 24 horas)

TLE

ActualizadoSource: Space-Track

Época: Sep 11, 2026, 18:07 UTC

1 38477U 97051AAE 26254.75514544  .00005217  00000-0  39214-2 0  9991
2 38477  86.4087   4.4541 0397997 164.7636 196.5931 13.62599120583939

Sigue IRIDIUM 33 DEB en tiempo real con AllMySat

Download on the App Store